�������l�o���
Date,Time,MP-1(��Sv/h),MP-2(��Sv/h),MP-3(��Sv/h),MP-4(��Sv/h),MP-5(��Sv/h),MP-6(��Sv/h),MP-7(��Sv/h),MP-8(��Sv/h),����,����(m/s),���J
2023/07/30,00:00,0.547,0.832,0.506,1.012,0.744,0.329,0.581,0.539,��쐼,2.6,��
2023/07/30,00:10,0.547,0.834,0.504,1.011,0.744,0.329,0.581,0.540,��쐼,2.8,��
2023/07/30,00:20,0.549,0.834,0.505,1.010,0.746,0.328,0.580,0.540,�쐼,2.5,��
2023/07/30,00:30,0.547,0.833,0.505,1.011,0.744,0.330,0.580,0.540,�쐼,2.0,��
2023/07/30,00:40,0.549,0.835,0.506,1.011,0.745,0.329,0.581,0.539,��쐼,1.4,��
2023/07/30,00:50,0.547,0.834,0.504,1.011,0.746,0.330,0.582,0.541,�쐼,1.2,��
2023/07/30,01:00,0.548,0.832,0.506,1.012,0.747,0.330,0.580,0.542,�쐼,1.7,��
2023/07/30,01:10,0.549,0.835,0.506,1.012,0.747,0.330,0.581,0.540,��쐼,1.5,��
2023/07/30,01:20,0.548,0.834,0.506,1.009,0.745,0.330,0.581,0.540,�쐼,1.5,��
2023/07/30,01:30,0.548,0.831,0.506,1.013,0.744,0.331,0.580,0.540,�쐼,1.5,��
2023/07/30,01:40,0.548,0.835,0.507,1.012,0.745,0.330,0.581,0.540,�쐼,1.9,��
2023/07/30,01:50,0.548,0.834,0.506,1.011,0.745,0.330,0.582,0.540,���쐼,1.5,��
2023/07/30,02:00,0.550,0.833,0.506,1.011,0.745,0.329,0.581,0.542,���k��,0.9,��
2023/07/30,02:10,0.547,0.836,0.507,1.011,0.745,0.329,0.581,0.541,�k�k��,1.9,��
2023/07/30,02:20,0.547,0.834,0.507,1.010,0.746,0.327,0.581,0.542,�k�k��,1.7,��
2023/07/30,02:30,0.547,0.832,0.505,1.012,0.746,0.330,0.581,0.540,�k�k��,2.3,��
2023/07/30,02:40,0.548,0.833,0.506,1.010,0.744,0.329,0.582,0.541,�k�k��,2.6,��
2023/07/30,02:50,0.550,0.833,0.506,1.011,0.747,0.329,0.581,0.539,�k��,1.7,��
2023/07/30,03:00,0.547,0.835,0.506,1.013,0.745,0.330,0.582,0.540,���쓌,0.6,��
2023/07/30,03:10,0.550,0.835,0.503,1.013,0.745,0.330,0.580,0.540,��쓌,2.2,��
2023/07/30,03:20,0.548,0.835,0.505,1.014,0.745,0.328,0.580,0.539,��,2.2,��
2023/07/30,03:30,0.548,0.834,0.505,1.011,0.744,0.330,0.581,0.541,��,2.3,��
2023/07/30,03:40,0.548,0.834,0.504,1.012,0.748,0.330,0.580,0.540,��,2.2,��
2023/07/30,03:50,0.548,0.832,0.503,1.011,0.744,0.329,0.581,0.540,��쐼,3.0,��
2023/07/30,04:00,0.548,0.833,0.503,1.011,0.746,0.329,0.581,0.541,��쐼,3.8,��
2023/07/30,04:10,0.546,0.834,0.504,1.011,0.745,0.329,0.581,0.542,��,2.8,��
2023/07/30,04:20,0.548,0.832,0.502,1.012,0.745,0.329,0.581,0.540,��,2.3,��
2023/07/30,04:30,0.547,0.832,0.504,1.010,0.745,0.329,0.581,0.540,��,1.9,��
2023/07/30,04:40,0.549,0.834,0.504,1.011,0.745,0.329,0.580,0.541,��쐼,2.3,��
2023/07/30,04:50,0.548,0.833,0.505,1.011,0.746,0.327,0.579,0.539,���쐼,1.5,��
2023/07/30,05:00,0.548,0.833,0.505,1.011,0.746,0.329,0.580,0.542,���k��,0.9,��
2023/07/30,05:10,0.548,0.833,0.504,1.013,0.745,0.328,0.579,0.539,�k,0.9,��
2023/07/30,05:20,0.548,0.833,0.503,1.011,0.745,0.328,0.581,0.540,�k�k��,1.4,��
2023/07/30,05:30,0.548,0.835,0.504,1.010,0.745,0.329,0.580,0.540,�k,1.1,��
2023/07/30,05:40,0.547,0.835,0.505,1.010,0.747,0.329,0.580,0.540,�k,1.9,��
2023/07/30,05:50,0.548,0.835,0.504,1.012,0.746,0.329,0.581,0.542,�k��,1.5,��
2023/07/30,06:00,0.548,0.836,0.503,1.012,0.746,0.329,0.580,0.540,�k��,3.0,��
2023/07/30,06:10,0.548,0.834,0.505,1.012,0.744,0.328,0.582,0.541,�k��,2.6,��
2023/07/30,06:20,0.547,0.832,0.504,1.012,0.745,0.329,0.579,0.539,�k��,1.5,��
2023/07/30,06:30,0.549,0.837,0.503,1.012,0.746,0.330,0.580,0.541,�k��,2.2,��
2023/07/30,06:40,0.547,0.833,0.507,1.013,0.745,0.329,0.581,0.541,�k�k��,2.6,��
2023/07/30,06:50,0.548,0.834,0.508,1.012,0.747,0.330,0.582,0.540,�k�k��,2.6,��
2023/07/30,07:00,0.549,0.832,0.507,1.013,0.745,0.330,0.583,0.540,�k�k��,1.7,��
2023/07/30,07:10,0.549,0.834,0.504,1.010,0.746,0.329,0.582,0.540,�k�k��,1.2,��
2023/07/30,07:20,0.547,0.833,0.505,1.012,0.747,0.329,0.582,0.542,�k,1.7,��
2023/07/30,07:30,0.546,0.834,0.506,1.013,0.744,0.330,0.582,0.540,�k�k��,2.5,��
2023/07/30,07:40,0.547,0.832,0.504,1.012,0.743,0.330,0.583,0.541,�k,0.8,��
2023/07/30,07:50,0.550,0.833,0.505,1.013,0.745,0.329,0.583,0.542,�k,1.1,��
2023/07/30,08:00,0.547,0.832,0.505,1.012,0.747,0.330,0.583,0.542,�k,2.0,��
2023/07/30,08:10,0.548,0.832,0.505,1.011,0.744,0.330,0.581,0.542,�k,2.2,��
2023/07/30,08:20,0.550,0.834,0.506,1.011,0.745,0.329,0.581,0.542,�k,1.7,��
2023/07/30,08:30,0.546,0.834,0.504,1.011,0.745,0.328,0.583,0.540,�k�k��,1.7,��
2023/07/30,08:40,0.547,0.835,0.506,1.013,0.746,0.329,0.583,0.540,�k,3.2,��
2023/07/30,08:50,0.548,0.835,0.505,1.012,0.746,0.329,0.583,0.540,�k,3.8,��
2023/07/30,09:00,0.548,0.835,0.508,1.013,0.747,0.328,0.584,0.539,�k�k��,2.8,��
2023/07/30,09:10,0.549,0.834,0.508,1.013,0.746,0.329,0.584,0.540,�k��,2.6,��
2023/07/30,09:20,0.547,0.836,0.505,1.014,0.747,0.329,0.583,0.538,���k��,2.5,��
2023/07/30,09:30,0.549,0.837,0.507,1.012,0.746,0.329,0.582,0.541,���k��,1.9,��
2023/07/30,09:40,0.548,0.836,0.506,1.013,0.749,0.328,0.583,0.541,���k��,2.0,��
2023/07/30,09:50,0.548,0.838,0.508,1.015,0.750,0.329,0.583,0.538,��,1.9,��
2023/07/30,10:00,0.548,0.838,0.507,1.012,0.750,0.328,0.582,0.542,���쓌,2.2,��
2023/07/30,10:10,0.549,0.836,0.506,1.013,0.748,0.328,0.581,0.538,��,2.6,��
2023/07/30,10:20,0.548,0.838,0.508,1.013,0.750,0.329,0.582,0.539,���쓌,3.0,��
2023/07/30,10:30,0.548,0.838,0.507,1.011,0.749,0.327,0.579,0.539,�쓌,2.9,��
2023/07/30,10:40,0.549,0.839,0.507,1.015,0.749,0.328,0.581,0.539,�쓌,2.6,��
2023/07/30,10:50,0.549,0.839,0.506,1.013,0.747,0.329,0.580,0.539,�쓌,2.5,��
2023/07/30,11:00,0.548,0.838,0.506,1.013,0.749,0.328,0.580,0.540,�쓌,2.3,��
2023/07/30,11:10,0.549,0.837,0.507,1.014,0.749,0.330,0.581,0.540,�쓌,2.0,��
2023/07/30,11:20,0.549,0.838,0.507,1.011,0.746,0.329,0.582,0.541,�쓌,2.6,��
2023/07/30,11:30,0.548,0.839,0.508,1.011,0.750,0.329,0.582,0.540,�쓌,2.3,��
2023/07/30,11:40,0.550,0.838,0.507,1.012,0.750,0.328,0.580,0.543,�쓌,3.1,��
2023/07/30,11:50,0.551,0.840,0.508,1.013,0.752,0.329,0.582,0.542,��쓌,2.6,��
2023/07/30,12:00,0.550,0.840,0.509,1.012,0.749,0.329,0.582,0.543,��쓌,2.6,��
2023/07/30,12:10,0.550,0.840,0.507,1.010,0.751,0.329,0.580,0.543,��쓌,2.6,��
2023/07/30,12:20,0.552,0.839,0.509,1.013,0.750,0.331,0.581,0.542,��쓌,2.9,��
2023/07/30,12:30,0.551,0.839,0.508,1.013,0.750,0.331,0.582,0.542,��쓌,2.6,��
2023/07/30,12:40,0.552,0.840,0.509,1.012,0.750,0.330,0.581,0.542,��쓌,3.5,��
2023/07/30,12:50,0.553,0.838,0.509,1.012,0.749,0.330,0.581,0.542,��쓌,5.1,��
2023/07/30,13:00,0.553,0.840,0.509,1.015,0.750,0.331,0.582,0.543,��쓌,4.6,��
2023/07/30,13:10,0.551,0.839,0.508,1.012,0.752,0.331,0.582,0.541,��쓌,4.0,��
2023/07/30,13:20,0.552,0.838,0.510,1.013,0.752,0.331,0.584,0.542,��쓌,4.7,��
2023/07/30,13:30,0.553,0.839,0.508,1.014,0.752,0.330,0.584,0.542,��쓌,3.8,��
2023/07/30,13:40,0.551,0.839,0.509,1.012,0.752,0.330,0.585,0.542,��쓌,3.5,��
2023/07/30,13:50,0.551,0.837,0.509,1.014,0.749,0.331,0.583,0.543,��쓌,3.5,��
2023/07/30,14:00,0.553,0.840,0.509,1.013,0.750,0.332,0.584,0.542,��쓌,4.0,��
2023/07/30,14:10,0.551,0.839,0.509,1.013,0.752,0.330,0.585,0.541,��쓌,4.4,��
2023/07/30,14:20,0.550,0.839,0.509,1.014,0.753,0.331,0.583,0.541,��쓌,5.1,��
2023/07/30,14:30,0.552,0.839,0.509,1.014,0.753,0.329,0.585,0.542,��쓌,4.6,��
2023/07/30,14:40,0.551,0.841,0.509,1.017,0.752,0.329,0.584,0.542,��쓌,4.5,��
2023/07/30,14:50,0.551,0.840,0.508,1.014,0.752,0.328,0.585,0.540,��쓌,4.4,��
2023/07/30,15:00,0.551,0.841,0.508,1.012,0.752,0.327,0.582,0.542,��쓌,5.2,��
2023/07/30,15:10,0.549,0.840,0.508,1.018,0.750,0.328,0.583,0.543,��쓌,5.2,��
2023/07/30,15:20,0.552,0.841,0.509,1.018,0.752,0.328,0.585,0.541,��쓌,5.5,��
2023/07/30,15:30,0.551,0.840,0.507,1.017,0.752,0.329,0.583,0.541,��,4.8,��
2023/07/30,15:40,0.550,0.839,0.508,1.018,0.752,0.328,0.584,0.542,��쓌,4.0,��
2023/07/30,15:50,0.552,0.841,0.509,1.017,0.751,0.327,0.583,0.541,��쓌,4.5,��
2023/07/30,16:00,0.551,0.839,0.509,1.018,0.751,0.328,0.584,0.541,��쓌,4.1,��
2023/07/30,16:10,0.549,0.837,0.509,1.017,0.750,0.329,0.584,0.541,��쓌,4.0,��
2023/07/30,16:20,0.551,0.840,0.508,1.020,0.751,0.330,0.584,0.540,��,4.7,��
2023/07/30,16:30,0.553,0.838,0.508,1.018,0.750,0.329,0.584,0.541,��쓌,4.3,��
2023/07/30,16:40,0.549,0.839,0.507,1.018,0.750,0.330,0.583,0.541,��쓌,4.7,��
2023/07/30,16:50,0.551,0.836,0.507,1.018,0.750,0.329,0.581,0.541,��쓌,5.2,��
2023/07/30,17:00,0.549,0.839,0.507,1.019,0.749,0.328,0.582,0.539,��,5.7,��
2023/07/30,17:10,0.551,0.836,0.508,1.017,0.749,0.328,0.583,0.540,��,5.8,��
2023/07/30,17:20,0.550,0.835,0.506,1.013,0.749,0.329,0.583,0.540,��,5.5,��
2023/07/30,17:30,0.550,0.836,0.505,1.017,0.751,0.329,0.582,0.540,��,4.9,��
2023/07/30,17:40,0.549,0.835,0.506,1.017,0.748,0.328,0.583,0.543,��,5.3,��
2023/07/30,17:50,0.551,0.837,0.507,1.015,0.750,0.327,0.583,0.540,��,5.1,��
2023/07/30,18:00,0.550,0.837,0.507,1.016,0.749,0.328,0.582,0.541,��,5.4,��
2023/07/30,18:10,0.551,0.836,0.507,1.016,0.749,0.326,0.581,0.541,��,4.3,��
2023/07/30,18:20,0.551,0.836,0.505,1.017,0.748,0.327,0.581,0.540,��,5.7,��
2023/07/30,18:30,0.548,0.835,0.506,1.015,0.750,0.327,0.580,0.541,��,6.3,��
2023/07/30,18:40,0.550,0.836,0.505,1.018,0.749,0.327,0.581,0.540,��쐼,4.2,��
2023/07/30,18:50,0.547,0.829,0.505,1.014,0.750,0.327,0.582,0.542,�쐼,3.6,�L
2023/07/30,19:00,0.542,0.815,0.497,1.009,0.731,0.327,0.575,0.538,��,6.0,�L
2023/07/30,19:10,0.541,0.809,0.498,0.996,0.725,0.327,0.573,0.535,��쓌,5.9,�L
2023/07/30,19:20,0.540,0.808,0.499,0.995,0.726,0.327,0.573,0.534,��,3.2,�L
2023/07/30,19:30,0.540,0.810,0.498,0.994,0.727,0.326,0.574,0.535,�k��,2.2,��
2023/07/30,19:40,0.540,0.806,0.498,0.992,0.724,0.326,0.573,0.535,���k��,1.9,��
2023/07/30,19:50,0.538,0.806,0.496,0.992,0.724,0.325,0.574,0.535,�k��,2.6,��
2023/07/30,20:00,0.536,0.803,0.496,0.991,0.721,0.324,0.576,0.537,���k��,1.4,��
2023/07/30,20:10,0.536,0.803,0.494,0.989,0.720,0.324,0.575,0.536,-,CALM,��
2023/07/30,20:20,0.537,0.804,0.493,0.989,0.720,0.323,0.574,0.536,-,CALM,��
2023/07/30,20:30,0.534,0.802,0.492,0.987,0.718,0.322,0.574,0.535,�쓌,1.4,��
2023/07/30,20:40,0.535,0.802,0.493,0.988,0.718,0.323,0.573,0.536,��쓌,1.7,��
2023/07/30,20:50,0.534,0.801,0.491,0.988,0.718,0.322,0.574,0.536,��,2.3,��
2023/07/30,21:00,0.533,0.801,0.492,0.985,0.720,0.322,0.574,0.535,��,2.0,��
2023/07/30,21:10,0.532,0.802,0.491,0.985,0.718,0.320,0.573,0.534,��쓌,1.7,��
2023/07/30,21:20,0.533,0.802,0.490,0.985,0.717,0.321,0.574,0.535,��쐼,1.2,��
2023/07/30,21:30,0.534,0.800,0.491,0.984,0.719,0.321,0.575,0.535,���k��,0.9,��
2023/07/30,21:40,0.532,0.801,0.492,0.985,0.717,0.322,0.574,0.535,�k��,2.3,��
2023/07/30,21:50,0.533,0.803,0.491,0.986,0.718,0.323,0.576,0.537,�k�k��,3.0,��
2023/07/30,22:00,0.533,0.801,0.492,0.986,0.718,0.323,0.574,0.536,�k�k��,2.0,��
2023/07/30,22:10,0.534,0.801,0.493,0.985,0.719,0.323,0.575,0.536,�k��,1.5,��
2023/07/30,22:20,0.533,0.801,0.491,0.987,0.720,0.323,0.575,0.536,��,1.7,��
2023/07/30,22:30,0.534,0.802,0.490,0.986,0.718,0.323,0.576,0.535,���쐼,2.6,��
2023/07/30,22:40,0.534,0.803,0.491,0.986,0.721,0.323,0.576,0.537,���쐼,3.1,��
2023/07/30,22:50,0.536,0.801,0.490,0.988,0.718,0.324,0.575,0.536,�쐼,2.3,��
2023/07/30,23:00,0.534,0.803,0.492,0.987,0.718,0.323,0.576,0.537,�쐼,2.6,��
2023/07/30,23:10,0.534,0.805,0.493,0.988,0.720,0.322,0.577,0.538,��쐼,2.6,��
2023/07/30,23:20,0.533,0.804,0.492,0.988,0.721,0.323,0.577,0.537,�쐼,2.5,��
2023/07/30,23:30,0.534,0.804,0.492,0.987,0.719,0.324,0.575,0.536,�쐼,2.3,��
2023/07/30,23:40,0.536,0.802,0.493,0.989,0.720,0.325,0.576,0.537,�쐼,3.5,��
2023/07/30,23:50,0.533,0.804,0.494,0.985,0.717,0.324,0.576,0.536,��쐼,3.0,��
